Regional Weather Roundup
Issued by NWS

Home | Current Version | Previous Version | Text Only | Print | Product List | Glossary On
Versions: 1 2 3 4 5 6 7 8 9 10 11 12 13 14 15 16 17 18 19 20 21 22 23 24 25 26 27 28 29 30 31 32 33 34 35 36 37 38 39 40 41 42 43 44 45 46 47 48 49 50
000
ASUS44 KFWD 030315
RWRTX
NORTH TEXAS HOURLY WEATHER ROUNDUP
NATIONAL WEATHER SERVICE FORT WORTH TX
1000 PM CDT SUN AUG 02 2015

NOTE: "FAIR" INDICATES FEW OR NO CLOUDS BELOW 12,000 FEET WITH NO
SIGNIFICANT WEATHER AND/OR OBSTRUCTIONS TO VISIBILITY.

TXZ118-119-030400-
DALLAS/FORT WORTH METROPLEX

CITY           SKY/WX    TMP DP  RH WIND       PRES   REMARKS
DFW AIRPORT    PTCLDY    87  56  34 SE7       29.86R
DALLAS LOVE    PTCLDY    90  56  31 SE9       29.86R
FTW MEACHAM    CLEAR     90  55  30 SE8       29.86R
DAL-EXECUTIVE  CLEAR     86  56  35 SE6       29.87R
FTW-ALLIANCE   PTCLDY    84  57  39 SE6       29.86R
FTW-NAS-JRB    CLEAR     91  54  28 SE8       29.87R
FTW-SPINKS     CLEAR     82  56  41 SE5       29.89R
ARLINGTON      CLEAR     88  56  33 SE7       29.87R
GRAND PRAIRIE  CLEAR     88  58  37 SE5       29.88R
MESQUITE       CLEAR     83  56  38 SE5       29.88R
LANCASTER      CLEAR     83  54  37 CALM      29.88R
$$

TXZ091>094-102>105-117-120-121-131>134-030400-
NORTH CENTRAL TEXAS

CITY           SKY/WX    TMP DP  RH WIND       PRES   REMARKS
SHRMAN/DENISON CLEAR     86  59  39 CALM      29.90R
GAINESVILLE    CLEAR     82  59  45 E3        29.90R
BOWIE          CLEAR     78  67  68 CALM      29.90R
DECATUR        CLEAR     82  56  40 SE5       29.89R
DENTON         CLEAR     87  58  37 SE7       29.86R
MCKINNEY       CLEAR     83  60  45 SE5       29.87R
GREENVILLE     CLEAR     79  61  53 CALM      29.89R
ROCKWALL       CLEAR     84  58  41 SE6       29.87R
TERRELL        CLEAR     85  60  42 E5        29.88R
WAXAHACHIE     CLEAR     83  58  42 CALM      29.89R
CLEBURNE         N/A     88  54  31 SE9       29.89R
GRANBURY       CLEAR     89  56  32 SE6       29.88R
$$

TXZ083>090-098>101-113>116-127>130-139>142-154-155-030400-
WESTERN NORTH TEXAS

CITY           SKY/WX    TMP DP  RH WIND       PRES   REMARKS
WICHITA FALLS  CLEAR     79  67  66 SE7       29.88R
WF-KICKAPOO    CLEAR     83  67  59 SE7       29.89R
VERNON         PTCLDY    86  58  38 SE9       29.89R
ABILENE        PTCLDY    83  62  49 SE7       29.92R
ABILENE-DYESS  MOCLDY    87  64  45 SE6       29.90R
BRECKENRIDGE   CLEAR     85  61  44 SE6       29.89R
GRAHAM         CLEAR     80  66  62 E3        29.87R
MINERAL WELLS  CLEAR     83  63  50 SE3       29.87R
STEPHENVILLE   CLEAR     83  57  39 SE6       29.92R
COMANCHE       CLEAR     82  59  45 SE7       29.90R
BROWNWOOD      CLEAR     82  61  47 E6        29.90R
COLEMAN        CLEAR     82  66  57 CALM      29.91R
BRADY          MOCLDY    88  61  40 SE6       29.91R
$$

TXZ143>147-156>162-174-175-030400-
CENTRAL TEXAS

CITY           SKY/WX    TMP DP  RH WIND       PRES   REMARKS
WACO           CLEAR     84  57  39 E6        29.86R
WACO-TSTC      CLEAR     81  61  50 CALM      29.87R
WACO-MCGREGOR  CLEAR     84  52  32 SE5       29.88R
HILLSBORO      CLEAR     85  52  31 E6        29.88R
CORSICANA      CLEAR     86  59  39 E5        29.88R
MEXIA          CLEAR     83  60  45 E10       29.87R
HEARNE         CLEAR     81  63  53 SE3       29.87R
CAMERON        CLEAR     85  59  41 CALM      29.86R
TEMPLE         CLEAR     82  54  36 E6        29.87R
KILLEEN        CLEAR     87  57  35 SE6       29.88R
KILLEEN-SKYLRK CLEAR     88  57  35 SE6       29.87R
FORT HOOD      CLEAR     87  57  35 SE8       29.87R
GATESVILLE     CLEAR     84  57  39 CALM      29.90R
HAMILTON       CLEAR     84  53  33 SE7       29.91R
LAMPASAS       CLEAR     85  58  39 CALM      29.89R
$$

TXZ095>097-106>112-122>126-135>138-148>153-164>167-030400-
EAST TEXAS

CITY           SKY/WX    TMP DP  RH WIND       PRES   REMARKS
PARIS          CLEAR     81  59  47 SE7       29.89R
SULPHUR SPRNGS CLEAR     80  59  48 E7        29.90R
MOUNT PLEASANT CLEAR     81  61  49 CALM      29.90R
GILMER         CLEAR     82  61  49 CALM      29.88R
MINEOLA        CLEAR     79  64  61 CALM      29.89R
TYLER          CLEAR     82  61  48 SE5       29.88R
LONGVIEW       CLEAR     82  64  54 VRB5      29.87R
MARSHALL       CLEAR     81  65  57 CALM      29.90R
ATHENS         CLEAR     77  61  57 CALM      29.87R
PALESTINE      CLEAR     81  65  57 E3        29.88R
JACKSONVILLE   CLEAR     85  55  35 CALM      29.91R
HENDERSON      CLEAR     77  65  65 CALM      29.89R
CENTER         FAIR      79  68  68 CALM      29.87R
NACOGDOCHES    CLEAR     75  64  69 CALM      29.88R
LUFKIN         CLEAR     78  65  63 E3        29.87R
$$

SUPPLEMENTAL OBSERVATIONS (CENTRAL)

CITY           SKY/WX    TMP DP  RH WIND       PRES   REMARKS
LAKE TEXOMA      N/A     82  68  61 SE2         N/A
CADDO GRASSLND   N/A     79  63  57 S2          N/A
PAT MAYSE LAKE   N/A     84  59  42 E6          N/A
GREENVILLE       N/A     82  55  39 SE2         N/A
CEDAR HILL       N/A     82  54  36 SE5         N/A
ATHENS           N/A    N/A N/A N/A NE1         N/A
LAKE LIMESTONE   N/A     81  59  47 E2          N/A
MCGREGOR         N/A     84  54  34 SE7         N/A
TEMPLE           N/A     84  54  34 E5          N/A
$$

SUPPLEMENTAL OBSERVATIONS (WEST)

CITY           SKY/WX    TMP DP  RH WIND       PRES   REMARKS
MILLERS CREEK    N/A     84  63  48 SE8         N/A
POSSUM KINGDOM   N/A     84  57  39 SE3         N/A
LBJ GRASSLAND    N/A     84  57  39 E3          N/A
GRANBURY         N/A     90  57  33 SE7         N/A
COMANCHE         N/A     82  55  39 SE7         N/A
HAMBY            N/A     82  61  47 SE5         N/A
IVIE RESERVOIR   N/A     86  59  39 E7          N/A
COLORADO BEND    N/A     84  52  32 S5          N/A
$$

SUPPLEMENTAL OBSERVATIONS (EAST)

CITY           SKY/WX    TMP DP  RH WIND       PRES   REMARKS
CLARKSVILLE      N/A     82  59  44 SE2         N/A
TEXARKANA        N/A     73  68  83 CALM        N/A
LINDEN           N/A     79  64  61 CALM        N/A
CADDO LAKE       N/A     72  66  83 CALM        N/A
GILMER           N/A    N/A N/A N/A CALM        N/A
HENDERSON        N/A     79  63  57 NE2         N/A
LUFKIN           N/A     77  68  73 MISG        N/A
N SABINE NF      N/A     75  64  69 MISG        N/A
S SABINE NF      N/A     75  66  73 CALM        N/A
$$

SUPPLEMENTAL OBSERVATIONS ARE A COLLECTION OF AUTOMATED INSTRUMENTS
THAT ARE MAINTAINED BY A VARIETY OF FEDERAL AND STATE AGENCIES.
CERTAIN ELEMENTS...SUCH AS HUMIDITY VALUES AND SUSTAINED WIND
SPEEDS...MAY BE APPROXIMATED.



USA.gov is the U.S. government's official web portal to all federal, state and local government web resources and services.